Regional Weather Roundup
Issued by NWS

Home | Current Version | Previous Version | Graphics & Text | Print | Product List | Glossary On
Versions: 1 2 3 4 5 6 7 8 9 10 11 12 13 14 15 16 17 18 19 20 21 22 23 24 25 26 27 28 29 30 31 32 33 34 35 36 37 38 39 40 41 42 43 44 45 46 47 48 49 50
000
ASUS43 KBIS 010502
RWRND

NORTH DAKOTA REGIONAL WEATHER ROUNDUP
NATIONAL WEATHER SERVICE BISMARCK ND
1100 PM CST TUE FEB 28 2017

NOTE: "FAIR" INDICATES FEW OR NO CLOUDS BELOW 12,000 FEET WITH NO
SIGNIFICANT WEATHER AND/OR OBSTRUCTIONS TO VISIBILITY.


NDZ001>003-009>011-017-010600-
NORTHWEST NORTH DAKOTA

CITY           SKY/WX    TMP DP  RH WIND       PRES   REMARKS
WILLISTON      LGT SNOW  22  20  92 N8        29.88R FOG     WCI  12
MINOT          LGT SNOW  14   9  80 SE5       29.89S WCI   6
MINOT AFB      LGT SNOW  12   9  85 CALM      29.90R
$$

NDZ018>021-031>035-040>046-010600-
SOUTHWEST NORTH DAKOTA

CITY           SKY/WX    TMP DP  RH WIND       PRES   REMARKS
BISMARCK       FAIR      18  13  80 NE3       29.92R
DICKINSON      MOCLDY    22  19  89 S7        29.78S WCI  13
GARRISON         N/A     14   9  80 E8        29.87F WCI   3
HETTINGER ARPT CLOUDY    22  18  85 CALM      29.83R
$$

NDZ004>008-012>016-024-026-027-054-010600-
NORTHEAST NORTH DAKOTA

CITY           SKY/WX    TMP DP  RH WIND       PRES   REMARKS
GRAND FORKS    CLOUDY    13   5  70 N14       29.94F WCI  -2
GRND FRKS AFB  CLOUDY    11   6  77 N12       29.94F WCI  -3
DEVILS LAKE    CLOUDY     6   1  80 CALM      29.93S
$$

NDZ022-023-025-028>030-036>039-047>053-010600-
SOUTHEAST NORTH DAKOTA

CITY           SKY/WX    TMP DP  RH WIND       PRES   REMARKS
FARGO          MOCLDY    20  16  84 N10       29.89R WCI   9
JAMESTOWN      CLOUDY    19  15  84 N10       29.89F WCI   7
$$





USA.gov is the U.S. government's official web portal to all federal, state and local government web resources and services.